Regional Weather Roundup
Issued by NWS

Home | Current Version | Previous Version | Text Only | Print | Product List | Glossary On
Versions: 1 2 3 4 5 6 7 8 9 10 11 12 13 14 15 16 17 18 19 20 21 22 23 24 25 26 27 28 29 30 31 32 33 34 35 36 37 38 39 40 41 42 43 44 45 46 47 48 49 50
000
ASUS42 KFFC 192310
RWRGA
WEATHER ROUNDUP FOR GEORGIA
NATIONAL WEATHER SERVICE PEACHTREE CITY GA
700 PM EDT SAT AUG 19 2017

NOTE: "FAIR" INDICATES FEW OR NO CLOUDS BELOW 12,000 FEET WITH NO
SIGNIFICANT WEATHER AND/OR OBSTRUCTIONS TO VISIBILITY.

* = USE WITH CAUTION. THE STATIONS MARKED WITH AN ASTERISK MAY NOT
REPORT WEATHER SUCH AS PRECIPITATION, FOG, OR THUNDER AND ARE NOT
QUALITY CONTROLLED BY NWS.

THE REMARK "TC" DENOTES TEMPERATURE READING IN DEGREES CELSIUS.

GAZ001>058-200000-
NORTH GEORGIA

CITY           SKY/WX    TMP DP  RH WIND       PRES   REMARKS
ATLANTA        MOSUNNY   86  66  51 W7        29.97S
ATHENS         SUNNY     87  68  52 NW5       29.97S HX  90
CHAMBLEE       SUNNY     88  62  41 W5        29.97F
PEACHTREE CITY SUNNY     86  71  60 W3        29.97F HX  91
ROME           SUNNY     91  66  43 CALM      29.95F HX  93
WEST ATLANTA   SUNNY     89  66  46 VRB6      29.96F HX  91
GAINESVILLE    SUNNY     86  65  49 S6        30.01S
CARTERSVILLE   SUNNY     87  65  47 NW5       29.97F


CITY           SKY/WX    TMP DP  RH WIND       PRES   REMARKS
LAWRENCEVILLE* SUNNY     90  64  43 VRB5      29.99S HX  91
MARIETTA       MOSUNNY   87  64  45 W9        29.98F
KENNESAW*      SUNNY     90  63  40 W6        30.00  HX  90
CANTON*        SUNNY     88  68  51 W5        30.01S HX  91
$$

GAZ059>098-102>109-200000-
CENTRAL GEORGIA

CITY           SKY/WX    TMP DP  RH WIND       PRES   REMARKS
AUGUSTA-BUSH   SUNNY     92  67  43 W5        29.92R HX  95
AUGUSTA-DANIEL SUNNY     91  64  40 VRB5      29.94S HX  92
COLUMBUS       SUNNY     92  64  39 W6        29.94S HX  93
MACON          SUNNY     89  69  51 VRB5      29.93F HX  93


CITY           SKY/WX    TMP DP  RH WIND       PRES   REMARKS
LAGRANGE*      SUNNY     90  69  50 CALM      29.96S HX  95
SYLVANIA*      SUNNY     92  70  48 CALM      29.93S HX  97
MILLEDGEVILLE* SUNNY     90  66  45 CALM      29.94S HX  92
$$

GAZ099>101-110>166-200000-
SOUTH GEORGIA

CITY           SKY/WX    TMP DP  RH WIND       PRES   REMARKS
SAVANNAH       CLOUDY    90  76  63 S12       29.92R HX 101
VALDOSTA       MOSUNNY   87  75  67 CALM      29.93S HX  96
ALMA           MOSUNNY   94  64  37 W6        29.92S HX  95
ST SIMONS      CLOUDY    81  76  84 S5        29.94S THUNDER
FT STEWART     CLOUDY    95  64  35 W7        29.89S HX  97
ALBANY         SUNNY     93  68  43 W5        29.94F HX  97
HUNTER AFB     CLOUDY    87  76  71 S7        29.90S HX  97
MOODY AFB      SUNNY     91  67  44 NW5       29.93R HX  95
BRUNSWICK      CLOUDY    79  72  78 SE5       29.95S


CITY           SKY/WX    TMP DP  RH WIND       PRES   REMARKS
BAINBRIDGE*    SUNNY     95  72  46 CALM      29.93S HX 103
MOULTRIE*      SUNNY     91  64  40 CALM      29.95S HX  93
VIDALIA*       SUNNY     93  66  40 W3        29.93S HX  96
WAYCROSS*      CLOUDY    93  63  36 N5        29.92R HX  94
DOUGLAS*       SUNNY     91  64  40 W3        29.94R HX  93
$$



USA.gov is the U.S. government's official web portal to all federal, state and local government web resources and services.